KOQT  Oak Ridge Airport

Add Bookmark

Tennessee, United States

Status
Operational
Latitude Longitude
36° 1' 12" N 84° 13' 48" W
36.020000 -84.230000
Local (DST -4) UTC (GMT -5)
Sep 30, 2014 01:52 Sep 30, 2014 17:52
Sunrise-Sunset Local UTC
Begin Civil Twilight 07:05 11:05
Sunrise 07:30 11:30
Sunset 07:22 23:22
End Civil Twilight 07:48 23:48

Current Weather

METAR Observed VFR
KOQT 301727Z AUTO 00000KT 10SM SCT010 23/18 A2998 Tue, Sep 30, 2014 @ 17:27 UTC
(25 Minutes ago)
Visual Flight Rules
Wind Visibility Clouds Conditions
Calm 10 statute miles
  • Scattered at 1,000' AGL
  • No significant weather
Temperatures Readings Precipitation
Current Temp 23°C (73°F)
Dewpoint 18°C (64°F)
Humidity 74%
Altimeter 29.98"Hg
Sea Level Pressure 1015mb
Field Elevation 908.79'
None Recorded

Additional weather within a 50nm radius of KOQT

Map ICAO Location
KTYS 17nm S (137°)
KMMI 40.6nm S (204°)
KCSV 41.7nm W (265°)
1A6 42.7nm N (034°)

24 Hour Weather History

Loading
-

24 Hour Weather Graphs

Loading
-

CheckWX.com is intended as a tool to help pilots better visualize weather data. It is not intended as a substitute for an official weather briefing obtained from a Flight Service Station. CheckWX.com does not meet the FAA requirements for an official pre-flight weather briefing. Therefore, it's important that pilots still call and obtain an official FSS pre-flight weather briefing.